CW0630 Weather Reports


time (UTC)temp
F
wind
direction
speed
knots
gust
knots
rain 1hr
in
rain 24hr
in
rain mn
in
humidity
%
barometer
mb
20260510090856 55 193 0.0 0.0 0.00 0.00 0.00 93 1011.4
20260510080848 56 193 0.0 0.0 0.00 0.00 0.00 92 1011.0
20260510070856 59 194 0.0 0.0 0.00 0.00 0.00 90 1010.9
20260510060841 62 189 1.7 3.5 0.00 0.00 0.00 85 1010.9
20260510050852 64 196 0.9 1.7 0.00 0.00 0.00 81 1010.9
20260510040904 64 194 1.7 5.2 0.00 0.00 0.00 78 1010.8
20260510030844 65 214 0.9 2.6 0.00 0.00 0.00 75 1010.5
20260510020901 64 211 1.7 1.7 0.00 0.00 0.00 74 1010.1
20260510010913 66 227 0.9 0.9 0.00 0.00 0.00 68 1009.3
20260510000859 68 175 0.9 0.9 0.00 0.00 0.00 63 1008.8
20260509230902 73 187 3.5 3.5 0.00 0.00 0.00 54 1008.6
20260509220853 75 198 1.7 3.5 0.00 0.00 0.00 54 1008.4
20260509210903 76 175 3.5 5.2 0.00 0.00 0.00 52 1008.1
20260509200858 78 167 4.3 4.3 0.00 0.00 0.00 48 1008.0
20260509190845 77 180 1.7 9.6 0.00 0.00 0.00 49 1008.8
20260509180842 75 182 1.7 4.3 0.00 0.00 0.00 51 1009.6
20260509170849 75 183 2.6 9.6 0.00 0.00 0.00 51 1009.9
20260509160922 74 236 3.5 12.2 0.00 0.01 0.00 53 1010.6
20260509150902 71 170 10.4 10.4 0.00 0.01 0.00 56 1011.3
20260509140845 67 173 5.2 5.2 0.00 0.01 0.00 66 1012.0
20260509130857 64 222 3.5 7.8 0.00 0.01 0.00 71 1012.4
20260509120925 58 173 4.3 4.3 0.00 0.01 0.00 81 1012.6
20260509110852 54 165 0.9 2.6 0.00 0.01 0.00 85 1012.3
20260509100858 53 174 1.7 3.5 0.00 0.01 0.00 84 1012.1